KI5QWQ Weather Reports


time (UTC)temp
C
wind
direction
speed
KPH
gust
KPH
rain 1hr
cm
rain 24hr
cm
rain mn
cm
humidity
%
barometer
mb
20260505004256 -17 215 3.2 4.8 0.00 0.00 0.00 1011.2
20260505003755 -17 229 1.6 6.4 0.00 0.00 0.00 1011.2
20260505003252 -17 195 3.2 8.0 0.00 0.00 0.00 1011.1
20260505002748 -17 335 4.8 6.4 0.00 0.00 0.00 1011.1
20260505002245 -17 154 3.2 4.8 0.00 0.00 0.00 1011.2
20260505001743 -17 204 3.2 8.0 0.00 0.00 0.00 1010.9
20260505001240 -17 204 3.2 9.7 0.00 0.00 0.00 1011.0
20260505000737 -17 157 1.6 8.0 0.00 0.00 0.00 1010.9
20260505000235 -17 224 0.0 9.7 0.00 0.00 0.00 1011.0
20260504235731 -17 175 4.8 11.3 0.00 0.00 0.00 1010.9
20260504235228 -17 222 4.8 6.4 0.00 0.00 0.00 1011.2
20260504234725 -17 223 4.8 8.0 0.00 0.00 0.00 1011.1
20260504234222 -17 243 3.2 9.7 0.00 0.00 0.00 1011.2
20260504233718 -17 149 6.4 6.4 0.00 0.00 0.00 1011.2
20260504233214 -17 220 4.8 6.4 0.00 0.00 0.00 1011.3
20260504232712 -17 116 1.6 12.9 0.00 0.00 0.00 1011.3
20260504232208 -17 233 3.2 6.4 0.00 0.00 0.00 1011.5
20260504231705 -17 222 3.2 17.7 0.00 0.00 0.00 1011.7
20260504231201 -17 148 1.6 4.8 0.00 0.00 0.00 1011.3
20260504230657 -17 272 3.2 8.0 0.00 0.00 0.00 1011.5
20260504230156 -17 240 1.6 11.3 0.00 0.00 0.00 1011.6
20260504225655 -17 209 3.2 4.8 0.00 0.00 0.00 1011.7
20260504225150 -17 131 4.8 6.4 0.00 0.00 0.00 1011.4
20260504224647 -17 213 1.6 6.4 0.00 0.00 0.00 1011.7
20260504224144 -17 238 3.2 8.0 0.00 0.00 0.00 1011.5
20260504223642 -17 204 3.2 3.2 0.00 0.00 0.00 1011.8
20260504223137 -17 138 4.8 8.0 0.00 0.00 0.00 1011.9
20260504222634 -17 203 4.8 6.4 0.00 0.00 0.00 1011.8
20260504222131 -17 200 1.6 8.0 0.00 0.00 0.00 1011.8
20260504221628 -17 199 4.8 14.5 0.00 0.00 0.00 1012.0
20260504221120 -17 207 3.2 9.7 0.00 0.00 0.00 1012.1
20260504220616 -17 214 3.2 9.7 0.00 0.00 0.00 1012.0
20260504220114 -17 159 3.2 9.7 0.00 0.00 0.00 1011.9
20260504215610 -17 205 3.2 4.8 0.00 0.00 0.00 1012.1
20260504215108 -17 215 3.2 6.4 0.00 0.00 0.00 1012.1
20260504214603 -17 226 1.6 6.4 0.00 0.00 0.00 1012.0
20260504214100 -17 210 3.2 14.5 0.00 0.00 0.00 1012.0
20260504213556 -17 255 4.8 8.0 0.00 0.00 0.00 1012.0
20260504213053 -17 232 6.4 9.7 0.00 0.00 0.00 1012.3
20260504212549 -17 237 1.6 8.0 0.00 0.00 0.00 1012.4
20260504212047 -17 234 3.2 6.4 0.00 0.00 0.00 1012.7
20260504211543 -17 250 6.4 11.3 0.00 0.00 0.00 1012.7
20260504211040 -17 269 3.2 4.8 0.00 0.00 0.00 1012.6
20260504210537 -17 230 4.8 6.4 0.00 0.00 0.00 1013.0
20260504210034 -17 214 3.2 4.8 0.00 0.00 0.00 1012.9
20260504205532 -17 201 4.8 6.4 0.00 0.00 0.00 1013.2
20260504205030 -17 207 4.8 11.3 0.00 0.00 0.00 1013.5
20260504204527 -17 208 4.8 8.0 0.00 0.00 0.00 1013.6
20260504204026 -17 212 4.8 6.4 0.00 0.00 0.00 1013.1
20260504203523 -17 238 1.6 8.0 0.00 0.00 0.00 1013.5
20260504203020 -17 219 1.6 6.4 0.00 0.00 0.00 1013.5
20260504202516 -17 255 0.0 8.0 0.00 0.00 0.00 1013.8
20260504202013 -17 234 1.6 6.4 0.00 0.00 0.00 1013.6
20260504201510 -17 216 4.8 8.0 0.00 0.00 0.00 1013.8
20260504201008 -17 251 3.2 6.4 0.00 0.00 0.00 1013.9
20260504200504 -17 160 3.2 9.7 0.00 0.00 0.00 1014.1
20260504200001 -17 212 3.2 14.5 0.00 0.00 0.00 1014.1
20260504195457 -17 98 0.0 8.0 0.00 0.00 0.00 1014.2
20260504194953 -17 213 0.0 6.4 0.00 0.00 0.00 1014.4
20260504194449 -17 199 3.2 8.0 0.00 0.00 0.00 1014.4
20260504193945 -17 224 4.8 11.3 0.00 0.00 0.00 1014.7
20260504193443 -17 196 4.8 6.4 0.00 0.00 0.00 1014.6
20260504192942 -17 149 11.3 14.5 0.00 0.00 0.00 1014.7
20260504192438 -17 147 4.8 14.5 0.00 0.00 0.00 1014.9
20260504191937 -17 95 0.0 12.9 0.00 0.00 0.00 1015.0
20260504191436 -17 220 3.2 14.5 0.00 0.00 0.00 1015.0
20260504190936 -17 218 3.2 8.0 0.00 0.00 0.00 1014.9
20260504190432 -17 191 1.6 4.8 0.00 0.00 0.00 1015.2
20260504185929 -17 189 3.2 16.1 0.00 0.00 0.00 1015.1
20260504185426 -17 208 3.2 11.3 0.00 0.00 0.00 1015.2
20260504184922 -17 221 4.8 6.4 0.00 0.00 0.00 1015.2
20260504184418 -17 225 4.8 8.0 0.00 0.00 0.00 1015.2
20260504183914 -17 225 4.8 9.7 0.00 0.00 0.00 1015.4
20260504183411 -17 163 4.8 9.7 0.00 0.00 0.00 1015.5
20260504182909 -17 239 3.2 8.0 0.00 0.00 0.00 1015.6
20260504182406 -17 214 3.2 9.7 0.00 0.00 0.00 1015.5
20260504181903 -17 172 4.8 14.5 0.00 0.00 0.00 1015.7
20260504181400 -17 224 4.8 6.4 0.00 0.00 0.00 1015.7
20260504180859 -17 236 3.2 11.3 0.00 0.00 0.00 1015.7
20260504180357 -17 216 4.8 9.7 0.00 0.00 0.00 1015.9
20260504175855 -17 222 4.8 14.5 0.00 0.00 0.00 1016.2
20260504175351 -17 217 4.8 4.8 0.00 0.00 0.00 1016.2
20260504174849 -17 217 4.8 6.4 0.00 0.00 0.00 1016.3
20260504174347 -17 216 1.6 14.5 0.00 0.00 0.00 1016.4
20260504173844 -17 261 3.2 4.8 0.00 0.00 0.00 1016.2
20260504173340 -17 226 3.2 9.7 0.00 0.00 0.00 1016.5
20260504172837 -17 221 3.2 9.7 0.00 0.00 0.00 1016.4
20260504172334 -17 165 3.2 11.3 0.00 0.00 0.00 1016.6
20260504171830 -17 256 6.4 11.3 0.00 0.00 0.00 1017.0
20260504171327 -17 237 6.4 8.0 0.00 0.00 0.00 1016.9
20260504170824 -17 199 3.2 12.9 0.00 0.00 0.00 1017.1
20260504170321 -17 264 3.2 8.0 0.00 0.00 0.00 1017.2
20260504160239 -17 225 4.8 9.7 0.00 0.00 0.00 1017.4
20260504150705 -17 172 3.2 12.9 0.00 0.00 0.00 1017.8
20260504150201 -17 193 3.2 8.0 0.00 0.00 0.00 1017.9
20260504141131 -17 142 8.0 12.9 0.00 0.00 0.00 1018.2
20260504140627 -17 230 3.2 14.5 0.00 0.00 0.00 1018.1
20260504140123 -17 212 4.8 8.0 0.00 0.00 0.00 1018.1
20260504130551 -17 199 3.2 11.3 0.00 0.00 0.00 1018.1
20260504110439 -17 156 0.0 4.8 0.00 0.00 0.00 1017.6
20260504100355 -17 155 0.0 3.2 0.00 0.00 0.00 1017.9
20260504081748 -17 191 4.8 8.0 0.00 0.00 0.00 1018.1
20260504081245 -17 207 1.6 4.8 0.00 0.00 0.00 1018.5
20260504080741 -17 160 0.0 4.8 0.00 0.00 0.00 1018.5
20260504080238 -17 153 4.8 6.4 0.00 0.00 0.00 1018.2
20260504070205 -17 192 3.2 9.7 0.00 0.00 0.00 1019.5
20260504060126 -17 160 3.2 16.1 0.00 0.00 0.00 1020.1
20260504050554 -17 196 0.0 6.4 0.00 0.00 0.00 1020.3
20260504045548 -17 83 0.0 4.8 0.00 0.00 0.00 1020.3
20260504045043 -17 117 0.0 4.8 0.00 0.00 0.00 1020.1
20260504044541 -17 214 0.0 4.8 0.00 0.00 0.00 1020.5
20260504044038 -17 172 0.0 8.0 0.00 0.00 0.00 1020.5
20260504043534 -17 158 0.0 3.2 0.00 0.00 0.00 1020.5
20260504043032 -17 145 0.0 11.3 0.00 0.00 0.00 1020.5
20260504042529 -17 215 4.8 6.4 0.00 0.00 0.00 1020.5
20260504042026 -17 159 0.0 6.4 0.00 0.00 0.00 1020.5
20260504041522 -17 193 3.2 6.4 0.00 0.00 0.00 1020.5
20260504041018 -17 167 3.2 6.4 0.00 0.00 0.00 1020.4
20260504040516 -17 153 3.2 3.2 0.00 0.00 0.00 1020.4
20260504040013 -17 142 0.0 3.2 0.00 0.00 0.00 1020.5
20260504035509 -17 131 1.6 1.6 0.00 0.00 0.00 1020.5
20260504035005 -17 130 0.0 1.6 0.00 0.00 0.00 1020.4
20260504034503 -17 89 0.0 3.2 0.00 0.00 0.00 1020.7
20260504034000 -17 205 0.0 1.6 0.00 0.00 0.00 1020.7
20260504033457 -17 224 0.0 1.6 0.00 0.00 0.00 1020.6
20260504032955 -17 126 0.0 1.6 0.00 0.00 0.00 1020.3
20260504032452 -17 125 0.0 3.2 0.00 0.00 0.00 1020.3
20260504031948 -17 150 0.0 3.2 0.00 0.00 0.00 1020.3
20260504031445 -17 224 0.0 1.6 0.00 0.00 0.00 1020.5
20260504030942 -17 50 0.0 3.2 0.00 0.00 0.00
20260504030439 -17 104 0.0 3.2 0.00 0.00 0.00
20260504025935 -17 142 0.0 3.2 0.00 0.00 0.00
20260504025432 -17 154 0.0 0.0 0.00 0.00 0.00
20260504024929 -17 217 0.0 3.2 0.00 0.00 0.00
20260504024426 -17 89 0.0 1.6 0.00 0.00 0.00
20260504023923 -17 199 0.0 3.2 0.00 0.00 0.00
20260504023419 -17 163 0.0 1.6 0.00 0.00 0.00
20260504022915 -17 219 0.0 1.6 0.00 0.00 0.00
20260504022412 -17 135 0.0 1.6 0.00 0.00 0.00
20260504021908 -17 235 0.0 1.6 0.00 0.00 0.00 1019.5
20260504021406 -17 117 0.0 1.6 0.00 0.00 0.00 1019.5
20260504020903 -17 136 0.0 1.6 0.00 0.00 0.00 1019.5
20260504020359 -17 217 0.0 1.6 0.00 0.00 0.00 1019.5
20260504015855 -17 117 0.0 1.6 0.00 0.00 0.00 1019.5
20260504015352 -17 212 0.0 1.6 0.00 0.00 0.00 1019.5
20260504014848 -17 117 0.0 1.6 0.00 0.00 0.00 1019.5
20260504014344 -17 297 0.0 1.6 0.00 0.00 0.00 1019.5
20260504013842 -17 245 0.0 1.6 0.00 0.00 0.00 1019.5
20260504013339 -17 309 0.0 1.6 0.00 0.00 0.00 1019.5
20260504012836 -17 142 0.0 1.6 0.00 0.00 0.00 1019.5
20260504012334 -17 164 0.0 0.0 0.00 0.00 0.00 1019.5
20260504011831 -17 124 0.0 1.6 0.00 0.00 0.00 1019.2
20260504011327 -17 173 0.0 1.6 0.00 0.00 0.00 1019.2
20260504010823 -17 235 0.0 1.6 0.00 0.00 0.00 1019.2
20260504010319 -17 205 0.0 1.6 0.00 0.00 0.00 1019.2
20260504005816 -17 230 0.0 9.7 0.00 0.00 0.00 1019.2
20260504005313 -17 148 3.2 6.4 0.00 0.00 0.00 1019.2
20260504004810 -17 256 0.0 1.6 0.00 0.00 0.00 1019.2